Location: Albuquerque Trailhead
(34.7934°N, 106.3736°W)
Time: 00:26:19
(UTC+00:00)

Cosmos 1943 Rocket - Pass Details

Date: 20 June 2021
Orbit: 813 x 843 km, 71.0° (Epoch: 27 July)

Event Time Altitude Azimuth Distance (km) Brightness Sun altitude
Rises 06:26:17 0° 352° (N) 3,342 6.5 -31.0°
Reaches altitude 10° 06:29:12 10° 7° (N) 2,408 5.4 -31.1°
Maximum altitude 06:33:34 24° 59° (ENE) 1,653 3.8 -31.2°
Enters shadow 06:33:58 23° 66° (ENE) 1,661 3.8 -31.2°
